Quillayute, WA
on Sunday, November 4, 2012

Sunday
Previous Day Next Day
Daily Summary
 ActualAverageRecord
Temperature
Mean Temperature °F 46°F  
Max Temperature 59°F 53°F 65°F (1976)
Min Temperature 50°F 40°F 24°F (2003)
Degree Days
Heating Degree Days 10 19  
Month to date heating degree days 74  
Since 1 July heating degree days 1164  
Cooling Degree Days 0 0  
Month to date cooling degree days 0  
Year to date cooling degree days 19  
Growing Degree Days5 (Base °F )  
Moisture
Dew Point 53°F   
Average Humidity 92    
Maximum Humidity 97    
Minimum Humidity 86    
Precipitation
Precipitation 1.17 in 0.49 in 1.82 in (1969)
Month to date precipitation 1.90  
Year to date precipitation 72.93  
Wind
Wind Speed 8 mph   
Max Wind Speed 21 mph   
Max Gust Speed 33 mph   
Visibility 2 miles   
Events Fog , Rain   

Key: T is trace of precipitation, MM is missing value
Source: NWS Daily Summary
Time(PST)TemperatureDew PointHumidity Pressure Visibility Wind DirectionWind SpeedGust SpeedPrecipitationEvents Conditions
12:53 AM 53.1°F 50.0°F 89% 30.12 in 6.0 miles Calm Calm - N/A   Overcast
1:53 AM 53.1°F 50.0°F 89% 30.13 in 7.0 miles ESE 4.6 mph - N/A   Overcast
1:19 AM 53.6°F 50.0°F 88% 30.13 in 8.0 miles East 4.6 mph - N/A   Overcast
1:53 AM 53.1°F 50.0°F 89% 30.13 in 8.0 miles East 4.6 mph - N/A   Overcast
2:22 AM 53.6°F 50.0°F 88% 30.13 in 2.0 miles East 4.6 mph - 0.00 in Rain Light Rain
2:53 AM 53.1°F 51.1°F 93% 30.13 in 2.5 miles East 3.5 mph - 0.00 in   Overcast
3:21 AM 53.6°F 51.8°F 94% 30.13 in 3.0 miles Calm Calm - 0.01 in   Overcast
3:51 AM 53.6°F 51.8°F 94% 30.13 in 1.8 miles SE 3.5 mph - 0.01 in Rain Light Rain
3:53 AM 54.0°F 52.0°F 93% 30.13 in 1.5 miles SE 4.6 mph - 0.01 in Rain Light Rain
3:57 AM 53.6°F 51.8°F 94% 30.13 in 1.2 miles Variable 3.5 mph - 0.01 in Rain Light Rain
4:25 AM 55.4°F 53.6°F 94% 30.13 in 1.5 miles SE 4.6 mph - 0.02 in Rain Light Rain
4:37 AM 55.4°F 53.6°F 94% 30.13 in 1.8 miles SE 4.6 mph - 0.02 in   Overcast
4:53 AM 55.0°F 53.1°F 93% 30.12 in 2.5 miles SE 5.8 mph - 0.03 in   Overcast
5:09 AM 55.4°F 53.6°F 94% 30.11 in 3.0 miles SE 6.9 mph - 0.00 in Rain Light Rain
5:53 AM 55.9°F 53.1°F 90% 30.11 in 9.0 miles SSE 6.9 mph - 0.00 in   Overcast
6:53 AM 57.0°F 54.0°F 89% 30.12 in 9.0 miles Variable 6.9 mph - N/A   Overcast
7:24 AM 57.2°F 53.6°F 88% 30.12 in 2.0 miles Variable 6.9 mph - 0.00 in Rain Light Rain
7:30 AM 57.2°F 55.4°F 94% 30.12 in 1.2 miles SSE 5.8 mph - 0.00 in   Overcast
7:41 AM 57.2°F 55.4°F 94% 30.12 in 1.5 miles SSE 9.2 mph - 0.00 in   Overcast
7:53 AM 57.0°F 55.0°F 93% 30.12 in 2.0 miles Variable 5.8 mph - 0.00 in   Overcast
8:04 AM 57.2°F 55.4°F 94% 30.13 in 4.0 miles SSE 8.1 mph - N/A   Overcast
8:17 AM 57.2°F 55.4°F 94% 30.13 in 2.5 miles Variable 5.8 mph 16.1 mph N/A   Overcast
8:36 AM 57.2°F 55.4°F 94% 30.14 in 5.0 miles Variable 5.8 mph 17.3 mph N/A   Overcast
8:53 AM 57.9°F 55.0°F 90% 30.14 in 1.8 miles SSE 8.1 mph 18.4 mph N/A   Overcast
9:17 AM 59.0°F 55.4°F 88% 30.14 in 2.5 miles SSE 10.4 mph 18.4 mph N/A   Overcast
9:36 AM 59.0°F 55.4°F 88% 30.14 in 4.0 miles SSE 6.9 mph 17.3 mph N/A   Overcast
9:53 AM 59.0°F 57.0°F 93% 30.14 in 4.0 miles SSE 9.2 mph - N/A   Overcast
10:53 AM 59.0°F 55.9°F 90% 30.17 in 2.5 miles South 10.4 mph 20.7 mph N/A   Overcast
10:59 AM 59.0°F 55.4°F 88% 30.17 in 1.2 miles South 9.2 mph 20.7 mph N/A   Overcast
11:13 AM 59.0°F 55.4°F 88% 30.17 in 0.8 miles South 11.5 mph 19.6 mph N/A   Overcast
11:53 AM 57.9°F 57.0°F 97% 30.17 in 0.5 miles South 12.7 mph 24.2 mph 0.02 in Fog , Rain Light Rain
12:09 PM 57.2°F 55.4°F 94% 30.17 in 1.0 miles South 12.7 mph 29.9 mph 0.00 in   Overcast
12:24 PM 57.2°F 55.4°F 94% 30.17 in 0.8 miles South 12.7 mph 27.6 mph 0.00 in   Overcast
12:46 PM 57.2°F 55.4°F 94% 30.16 in 1.0 miles South 11.5 mph - 0.00 in   Overcast
12:53 PM 57.0°F 55.0°F 93% 30.15 in 1.0 miles South 10.4 mph 23.0 mph 0.00 in   Overcast
1:07 PM 57.2°F 55.4°F 94% 30.15 in 2.0 miles South 9.2 mph 26.5 mph N/A   Overcast
1:24 PM 57.2°F 53.6°F 88% 30.16 in 1.5 miles South 11.5 mph 26.5 mph 0.01 in Rain Light Rain
1:53 PM 55.9°F 54.0°F 93% 30.17 in 2.5 miles South 16.1 mph 28.8 mph 0.02 in Rain Light Rain
1:57 PM 55.4°F 53.6°F 94% 30.17 in 1.2 miles South 16.1 mph 28.8 mph 0.00 in Rain Light Rain
2:06 PM 55.4°F 53.6°F 94% 30.15 in 0.5 miles South 10.4 mph 32.2 mph 0.02 in Fog , Rain Light Rain
2:24 PM 55.4°F 53.6°F 94% 30.17 in 1.5 miles South 16.1 mph 26.5 mph 0.03 in Rain Light Rain
2:33 PM 55.4°F 53.6°F 94% 30.17 in 2.5 miles South 18.4 mph 28.8 mph 0.03 in   Overcast
2:51 PM 55.4°F 53.6°F 94% 30.14 in 1.2 miles South 13.8 mph 32.2 mph 0.04 in Rain Light Rain
2:53 PM 55.9°F 53.1°F 90% 30.15 in 1.0 miles South 17.3 mph 32.2 mph 0.04 in Rain Light Rain
3:06 PM 55.4°F 53.6°F 94% 30.14 in 0.8 miles South 17.3 mph 27.6 mph 0.01 in Rain Light Rain
3:30 PM 55.4°F 53.6°F 94% 30.14 in 1.0 miles South 11.5 mph 28.8 mph 0.02 in Rain Light Rain
3:45 PM 55.4°F 53.6°F 94% 30.18 in 0.2 miles South 16.1 mph 32.2 mph 0.08 in Fog , Rain Rain
3:53 PM 55.9°F 53.1°F 90% 30.18 in 0.5 miles SSW 13.8 mph 28.8 mph 0.10 in Fog , Rain Light Rain
4:07 PM 55.4°F 53.6°F 94% 30.18 in 0.2 miles South 10.4 mph 23.0 mph 0.14 in Fog , Rain Heavy Rain
4:19 PM 55.4°F 53.6°F 94% 30.16 in 0.8 miles South 11.5 mph 19.6 mph 0.19 in Rain Rain
4:24 PM 55.4°F 53.6°F 94% 30.17 in 1.5 miles South 9.2 mph 20.7 mph 0.20 in Rain Light Rain
4:35 PM 55.4°F 53.6°F 94% 30.18 in 1.0 miles South 11.5 mph 21.9 mph 0.28 in Rain Heavy Rain
4:37 PM 55.4°F 53.6°F 94% 30.18 in 0.8 miles SSW 9.2 mph 21.9 mph N/A Rain Heavy Rain
4:53 PM 55.0°F 53.1°F 93% 30.19 in 0.8 miles South 9.2 mph 23.0 mph 0.49 in Rain Heavy Rain
5:17 PM 55.4°F 53.6°F 94% 30.19 in 1.2 miles South 9.2 mph 20.7 mph 0.23 in Rain Rain
5:53 PM 55.0°F 53.1°F 93% 30.21 in 1.0 miles SSW 6.9 mph 17.3 mph 0.40 in Rain Rain
6:08 PM 55.4°F 53.6°F 94% 30.22 in 1.2 miles SSW 8.1 mph - 0.04 in Rain Rain
6:14 PM 55.4°F 53.6°F 94% 30.23 in 1.5 miles Variable 5.8 mph - 0.05 in Rain Light Rain
6:23 PM 55.4°F 53.6°F 94% 30.23 in 2.0 miles WSW 6.9 mph - 0.05 in Rain Light Rain
6:41 PM 55.4°F 51.8°F 88% 30.24 in 3.0 miles NW 6.9 mph - 0.05 in   Overcast
6:53 PM 54.0°F 52.0°F 93% 30.25 in 2.5 miles North 4.6 mph - 0.06 in   Overcast
7:02 PM 53.6°F 51.8°F 94% 30.23 in 5.0 miles NE 3.5 mph - N/A   Overcast
7:09 PM 53.6°F 51.8°F 94% 30.24 in 6.0 miles NE 3.5 mph - N/A   Overcast
7:53 PM 54.0°F 52.0°F 93% 30.25 in 5.0 miles SSE 3.5 mph - N/A   Overcast
8:53 PM 54.0°F 52.0°F 93% 30.27 in 5.0 miles South 3.5 mph - N/A   Overcast
9:53 PM 52.0°F 50.0°F 93% 30.29 in 4.0 miles Calm Calm - N/A   Overcast
10:31 PM 51.8°F 48.2°F 88% 30.30 in 1.8 miles Calm Calm - N/A   Scattered Clouds
10:34 PM 51.8°F 48.2°F 88% 30.30 in 0.8 miles Calm Calm - N/A   Mostly Cloudy
10:41 PM 51.8°F 48.2°F 88% 30.32 in 0.2 miles Calm Calm - N/A Fog Fog
10:53 PM 51.1°F 48.9°F 92% 30.32 in 0.2 miles Calm Calm - N/A Fog Fog
Moon Phase
Nov. 04 Nov. 06 Nov. 13 Nov. 20 Nov. 28
Sunrise:07:08 AM (PST) Moon Rise:09:34 PM (PST)11/4
Sunset:04:54 PM (PST) Moon Set:12:00 PM (PST)11/4

Copyright © 2014 The Weather Underground, Inc.